sat.trackr.live / text

‹ back to catalog

STARLINK-5344

NORAD 55494 · 2023-015AX

PAYLOAD ACTIVE UNKNOWN

§ Identity

Operator
Country
US
Launch date
2023-02-02
Launch site
AFETR
Launch vehicle
Mass (kg)
RCS (m²)

Purposes: comms

External: N2YO · Heavens-Above · Gunter

§ Orbital elements

Epoch: 2026-09-20T14:28:58.225152Z

Period
94.27 min
Inclination
43.0039°
Eccentricity
0.0001068
Mean motion
15.27581786 rev/d
Perigee alt
482.3 km
Apogee alt
483.8 km
Semi-major
6,861.2 km
B*
9.4778e-6
RAAN
319.0567°
Arg perigee
318.3824°
Mean anomaly
41.6947°
Rev number
20,040

§ Raw data

STARLINK-53441 55494U 23015AX  26263.60345168 -.00000001  00000+0  94778-5 0  99912 55494  43.0039 319.0567 0001068 318.3824  41.6947 15.27581786200400

JSON: /api/v1/satellites/55494 · /tle

For live sub-satellite position, see the globe view (requires WebGL).

§ Visibility from observer

Set your observer location to see the next 7 days of passes ≥ 10°. The values pass through the URL so the page stays shareable.

No JS? Fill the form by hand. The geolocation button needs JavaScript.